{"data":{"norad_id":69018,"intl_designator":"2026-100AQ","name":"PELICAN-8","alt_names":[],"object_type":"PAYLOAD","status":"ACTIVE","operator":null,"country":"US","launch_date":"2026-05-03","launch_site_code":"AFWTR","launch_vehicle":null,"mission":null,"orbit_class":"UNKNOWN","rcs_meters":null,"size_class":null,"mass_kg":null,"dimensions":null,"purposes":["earth_obs"],"wikipedia_slug":null,"has_3d_model":false,"image_url":null,"decayed_at":null,"tle_current":{"epoch":"2026-09-18T11:01:08.661792Z","epoch_age_seconds":194555,"freshness":"STALE","line1":"1 69018U 26100AQ  26261.45912803  .00016042  00000+0  60331-3 0  9990","line2":"2 69018  97.3160 157.7295 0003535 108.6583 251.5040 15.27219183 21037","mean_motion":15.27219183,"eccentricity":0.0003535,"inclination_deg":97.316,"raan_deg":157.7295,"arg_perigee_deg":108.6583,"mean_anomaly_deg":251.504,"bstar":0.00060331,"rev_number":2103,"period_min":94.289019940892,"perigee_km":481.70391336178,"apogee_km":486.55553593611,"semimajor_km":6862.2667246489,"source":"CELESTRAK","updated_at":"2026-09-20T09:00:34.754862Z"}}}